Location: St. Louis
(38.6270°N, 90.1994°W)
Time: 20:47:31
(UTC-06:00)

Vanguard 3 - Pass Details

Date: 03 December 2021
Orbit: 508 x 3260 km, 33.3° (Epoch: 19 January)

Event Time Altitude Azimuth Distance (km) Brightness Sun altitude
Exits shadow 05:45:37 - 258° (WSW) 6,452 11.2 -14.6°
Reaches altitude 10° 05:46:51 10° 258° (WSW) 6,195 11.1 -14.3°
Maximum altitude 06:06:21 73° 179° (S) 2,802 9.9 -10.7°
Drops below altitude 10° 06:19:14 10° 98° (E) 4,318 12.3 -8.4°
Sets 06:22:00 0° 96° (E) 5,010 12.9 -7.9°
